Crookston, MN

10:59 AM CST on December 04, 2016 (GMT -0600)
Crookston Municipal-Kirkwood

Weather History for KCKN - January, 2013

Change the Weather History Date:

Sunday, January 20, 2013

  Actual Average Record
Temperature  
Mean Temperature -7 °F -  
Max Temperature 0 °F 11 °F 30 °F (2015)
Min Temperature -14 °F 0 °F -27 °F (2014)
Degree Days  
Heating Degree Days 72    
Moisture  
Dew Point -13 °F    
Average Humidity 76    
Maximum Humidity 85    
Minimum Humidity 64    
Precipitation  
Precipitation 0.00 in - - ()
Sea Level Pressure  
Sea Level Pressure 30.35 in    
Wind  
Wind Speed 11 mph (NW)    
Max Wind Speed 26 mph    
Max Gust Speed 31 mph    
Visibility 7 miles    
Events Snow    
Averages and records for this station are not official NWS values.
T = Trace of Precipitation, MM = Missing Value Source: NWS Daily Summary

Daily Weather History Graph

Daily Weather History Graph

Search for Another Location

Airport or City:

Trip Planner

Search our weather history database for the weather conditions in past years. The results will help you decide how hot, cold, wet, or windy it might be!

Date:

Astronomy

Jan. 20, 2013 Rise Set
Actual Time 8:06 AM CST 5:09 PM CST
Civil Twilight 7:32 AM CST 5:43 PM CST
Nautical Twilight 6:54 AM CST 6:21 PM CST
Astronomical Twilight 6:17 AM CST 6:58 PM CST
Moon 12:12 PM CST (1/20) 2:37 AM CST (1/20)
Length of Visible Light 10h 11m
Length of Day
9h 02m
Waxing Gibbous, 66% of the Moon is Illuminated
Jan 20
Waxing Gibbous
Jan 26
Full
Feb 3
Last Quarter
Feb 10
New
Feb 17
First Quarter

Hourly Weather History & Observations

Time (CST) Temp. Windchill Dew Point Humidity Pressure Visibility Wind Dir Wind Speed Gust Speed Precip Events Conditions
12:15 AM -7.6 °F -25.7 °F -13.0 °F 77% 30.34 in 10.0 mi NNW 10.4 mph - N/A   Clear
12:34 AM -7.6 °F -25.7 °F -13.0 °F 77% 30.34 in 10.0 mi NNW 10.4 mph - N/A   Clear
12:55 AM -7.6 °F -26.6 °F -11.2 °F 84% 30.34 in 10.0 mi NNW 11.5 mph - N/A   Clear
2:34 AM -7.6 °F -22.1 °F -13.0 °F 77% 30.36 in 10.0 mi NW 6.9 mph - N/A   Clear
2:55 AM -9.4 °F -20.9 °F -14.8 °F 77% 30.36 in 10.0 mi NW 4.6 mph - N/A   Clear
3:14 AM -9.4 °F -22.7 °F -14.8 °F 77% 30.37 in 10.0 mi NW 5.8 mph - N/A   Clear
3:34 AM -9.4 °F -20.9 °F -14.8 °F 77% 30.36 in 10.0 mi NW 4.6 mph - N/A   Clear
3:55 AM -11.2 °F - -16.6 °F 77% 30.35 in 10.0 mi Calm Calm - N/A   Clear
4:14 AM -11.2 °F -23.0 °F -16.6 °F 77% 30.35 in 10.0 mi West 4.6 mph - N/A   Clear
4:34 AM -11.2 °F - -16.6 °F 77% 30.34 in 10.0 mi Calm Calm - N/A   Clear
4:55 AM -11.2 °F - -16.6 °F 77% 30.34 in 10.0 mi Calm Calm - N/A   Clear
5:14 AM -11.2 °F -20.6 °F -14.8 °F 84% 30.34 in 10.0 mi West 3.5 mph - N/A   Clear
5:35 AM -11.2 °F -23.0 °F -16.6 °F 77% 30.33 in 10.0 mi West 4.6 mph - N/A   Clear
5:55 AM -11.2 °F -23.0 °F -16.6 °F 77% 30.34 in 10.0 mi West 4.6 mph - N/A   Clear
6:14 AM -11.2 °F -23.0 °F -16.6 °F 77% 30.33 in 10.0 mi WSW 4.6 mph - N/A   Clear
6:35 AM -9.4 °F -22.7 °F -13.0 °F 84% 30.34 in 10.0 mi West 5.8 mph - N/A   Clear
6:55 AM -7.6 °F -20.6 °F -11.2 °F 84% 30.34 in 10.0 mi WSW 5.8 mph - N/A   Clear
7:14 AM -5.8 °F -18.4 °F -11.2 °F 77% 30.34 in 7.0 mi WSW 5.8 mph - N/A   Clear
7:35 AM -5.8 °F -18.4 °F -11.2 °F 77% 30.34 in 4.0 mi West 5.8 mph - N/A Snow Light Snow
7:55 AM -5.8 °F -21.2 °F -9.4 °F 84% 30.35 in 5.0 mi West 8.1 mph - N/A   Haze
8:14 AM -5.8 °F -21.2 °F -9.4 °F 84% 30.34 in 7.0 mi West 8.1 mph - N/A   Scattered Clouds
8:35 AM -5.8 °F -19.9 °F -9.4 °F 84% 30.34 in 10.0 mi West 6.9 mph - N/A   Scattered Clouds
9:35 AM -4.0 °F -21.2 °F -7.6 °F 85% 30.35 in 10.0 mi West 10.4 mph - N/A   Scattered Clouds
9:55 AM -2.2 °F -18.9 °F -7.6 °F 78% 30.35 in 2.0 mi West 10.4 mph - N/A   Haze
10:14 AM -2.2 °F -20.7 °F -7.6 °F 78% 30.35 in 10.0 mi WNW 12.7 mph - N/A   Clear
10:35 AM -0.4 °F -21.7 °F -7.6 °F 72% 30.36 in 5.0 mi NW 18.4 mph - N/A   Haze
10:55 AM -0.4 °F -22.8 °F -7.6 °F 72% 30.37 in 5.0 mi NW 20.7 mph - N/A   Haze
11:14 AM -0.4 °F -21.7 °F -7.6 °F 72% 30.37 in 2.5 mi NNW 18.4 mph 25.3 mph N/A   Haze
11:35 AM -2.2 °F -22.9 °F -7.6 °F 78% 30.37 in 4.0 mi NNW 16.1 mph 23.0 mph N/A   Haze
11:54 AM -2.2 °F -24.1 °F -7.6 °F 78% 30.37 in 3.0 mi NNW 18.4 mph 26.5 mph N/A   Haze
12:15 PM -2.2 °F -24.7 °F -7.6 °F 78% 30.37 in 1.8 mi NNW 19.6 mph 23.0 mph N/A   Haze
12:35 PM -2.2 °F -25.2 °F -7.6 °F 78% 30.37 in 1.5 mi NNW 20.7 mph - N/A   Haze
12:54 PM -2.2 °F -25.7 °F -9.4 °F 71% 30.37 in 1.0 mi NNW 21.9 mph 26.5 mph N/A   Haze
1:15 PM -2.2 °F -25.2 °F -7.6 °F 78% 30.38 in 1.5 mi NNW 20.7 mph - N/A   Haze
1:34 PM -4.0 °F -27.0 °F -9.4 °F 78% 30.37 in 1.2 mi NNW 19.6 mph - N/A   Haze
1:54 PM -2.2 °F -24.1 °F -9.4 °F 71% 30.36 in 0.8 mi NNW 18.4 mph - N/A   Haze
2:34 PM -4.0 °F -25.8 °F -9.4 °F 78% 30.36 in 1.2 mi NNW 17.3 mph - N/A   Haze
2:55 PM -4.0 °F -25.2 °F -9.4 °F 78% 30.37 in 10.0 mi NW 16.1 mph - N/A   Scattered Clouds
3:15 PM -4.0 °F -22.1 °F -9.4 °F 78% 30.37 in 2.5 mi NNW 11.5 mph - N/A   Haze
4:15 PM -2.2 °F -24.1 °F -9.4 °F 71% 30.35 in 2.5 mi NW 18.4 mph - N/A   Haze
4:34 PM -4.0 °F -27.0 °F -9.4 °F 78% 30.35 in 7.0 mi WNW 19.6 mph - N/A   Scattered Clouds
4:55 PM -4.0 °F -28.1 °F -11.2 °F 71% 30.35 in 10.0 mi NW 21.9 mph - N/A   Clear
5:15 PM -5.8 °F -29.9 °F -11.2 °F 77% 30.35 in 7.0 mi WNW 20.7 mph - N/A   Scattered Clouds
5:34 PM -7.6 °F -31.7 °F -14.8 °F 71% 30.35 in 10.0 mi WNW 19.6 mph - N/A   Clear
5:55 PM -7.6 °F -32.3 °F -14.8 °F 71% 30.35 in 10.0 mi NW 20.7 mph - N/A   Clear
6:14 PM -7.6 °F -29.8 °F -14.8 °F 71% 30.35 in 10.0 mi WNW 16.1 mph - N/A   Clear
6:34 PM -7.6 °F -32.9 °F -14.8 °F 71% 30.34 in 10.0 mi WNW 21.9 mph - N/A   Clear
6:55 PM -9.4 °F -37.3 °F -16.6 °F 71% 30.35 in 10.0 mi NW 26.5 mph - N/A   Clear
7:14 PM -9.4 °F -36.8 °F -16.6 °F 71% 30.34 in 10.0 mi NW 25.3 mph - N/A   Scattered Clouds
7:35 PM -9.4 °F -34.7 °F -16.6 °F 71% 30.35 in 4.0 mi NW 20.7 mph 24.2 mph N/A   Haze
7:55 PM -9.4 °F -34.7 °F -16.6 °F 71% 30.35 in 4.0 mi NW 20.7 mph 31.1 mph N/A   Haze
8:14 PM -11.2 °F -37.6 °F -18.4 °F 70% 30.34 in 4.0 mi NW 21.9 mph - N/A   Haze
8:35 PM -11.2 °F -39.2 °F -18.4 °F 70% 30.35 in 5.0 mi NW 25.3 mph - N/A   Haze
8:55 PM -11.2 °F -37.6 °F -18.4 °F 70% 30.35 in 7.0 mi NW 21.9 mph 26.5 mph N/A   Mostly Cloudy
9:14 PM -11.2 °F -37.6 °F -18.4 °F 70% 30.35 in 5.0 mi NW 21.9 mph - N/A   Haze
9:35 PM -11.2 °F -35.8 °F -20.2 °F 64% 30.35 in 10.0 mi NW 18.4 mph - N/A   Clear
9:55 PM -13.0 °F -37.5 °F -20.2 °F 70% 30.35 in 10.0 mi NW 17.3 mph - N/A   Clear
10:14 PM -13.0 °F -36.8 °F -20.2 °F 70% 30.35 in 10.0 mi NW 16.1 mph - N/A   Clear
10:35 PM -13.0 °F -35.2 °F -20.2 °F 70% 30.35 in 10.0 mi NNW 13.8 mph - N/A   Clear
10:54 PM -13.0 °F -34.3 °F -20.2 °F 70% 30.35 in 10.0 mi NW 12.7 mph - N/A   Clear
11:14 PM -14.8 °F -35.6 °F -20.2 °F 77% 30.35 in 10.0 mi NW 11.5 mph - N/A   Clear
11:35 PM -14.8 °F -35.6 °F -20.2 °F 77% 30.35 in 10.0 mi NW 11.5 mph - N/A   Clear